[[{"header":{"parameterUnit":"m.s-1","parameterCategory":1,"la1":30.2991,"la2":30.254,"lo1":-89.0895,"lo2":-89.0444,"dy":0.0017,"dx":0.0017,"nx":28,"ny":28,"refTime":"2023-07-19T09:00:00:Z","depth":0,"parameterNumber":2,"parameterNumberName":"U-component_of_WINDS"},"data":[0,0,0,0,0,0,0,0,0,0,0,0,0,0,0,0,0,0,0,0,0,0,0,0,0,0,0,0,0,0,0,0,0,0,0,0,0,0,0,0,0,0,0,0,0,0,0,0,0,0,0,0,0,0,0,0,0,0,-0.6088,-0.6088,0,-0.604,-0.6039,-0.6039,-0.604,-0.6041,-0.6042,-0.6042,-0.5987,-0.5985,-0.5983,0,0,0,0,0,0,0,0,0,0,0,0,0,-0.6179,-0.6177,-0.6088,-0.6088,-0.6087,-0.604,-0.6039,-0.6038,-0.604,-0.6041,-0.6042,-0.6043,-0.5988,-0.5986,-0.5983,0,0,0,0,0,0,0,0,0,0,0,0,0,-0.6136,-0.6176,-0.6088,-0.6082,-0.6081,-0.604,-0.6039,-0.6038,-0.604,-0.6041,-0.6042,-0.6043,-0.5989,-0.5986,-0.5983,-0.5943,0,0,-0.5973,-0.5972,0,0,0,0,0,0,0,0,-0.6138,-0.6132,-0.6084,-0.6083,-0.6081,-0.6047,-0.6051,-0.6006,-0.604,-0.6055,-0.6042,-0.6044,-0.6006,-0.6002,-0.599,-0.594,-0.5938,-0.5973,-0.5971,-0.597,-0.5969,0,0,0,0,0,0,0,-0.6141,-0.6134,-0.6069,-0.6083,-0.6082,-0.6081,-0.6076,-0.6042,-0.6025,-0.6054,-0.6054,-0.6049,-0.6006,-0.5993,-0.5989,-0.5937,-0.5973,-0.597,-0.5968,-0.5967,-0.5854,-0.5852,0,0,0,0,0,0,-0.6146,-0.6137,-0.607,-0.6067,-0.6113,-0.6078,-0.6073,-0.6057,-0.6026,-0.6022,-0.6048,-0.6049,-0.5998,-0.5993,-0.5987,-0.594,-0.597,-0.5967,-0.5965,-0.5855,-0.5853,-0.5852,0,0,0,0,0,0,-0.6148,-0.614,-0.6072,-0.6102,-0.6093,-0.6076,-0.6058,-0.6056,-0.6043,-0.6021,-0.6018,-0.6039,-0.5999,-0.5991,-0.5955,-0.5938,-0.5965,-0.5962,-0.5856,-0.5854,-0.5853,-0.5844,0,0,0,0,0,0,-0.615,-0.6141,-0.6126,-0.6102,-0.6092,-0.6042,-0.6057,-0.6054,-0.6038,-0.6039,-0.6011,-0.6008,-0.5999,-0.5959,-0.5951,-0.5934,-0.596,-0.5857,-0.5855,-0.5853,-0.5845,-0.5842,-0.5839,0,0,0,0,0,-0.6154,-0.6124,-0.6125,-0.6117,-0.6073,-0.6041,-0.6035,-0.6027,-0.6037,-0.6022,-0.6008,-0.6009,-0.5941,-0.5955,-0.5947,-0.5928,-0.5858,-0.5856,-0.5853,-0.5847,-0.5842,-0.5839,0,0,0,0,0,0,-0.6144,-0.612,-0.6122,-0.6083,-0.6065,-0.6041,-0.6022,-0.6022,-0.5999,-0.6,-0.599,-0.5983,-0.5947,-0.5933,-0.595,-0.5888,-0.5901,-0.5896,-0.5899,-0.5894,-0.5891,-0.5896,-0.5957,0,0,0,0,0,-0.6138,-0.6115,-0.6095,-0.6063,-0.6053,-0.6039,-0.6025,-0.602,-0.5999,-0.5991,-0.5974,-0.5953,-0.5927,-0.591,-0.5884,-0.5843,-0.5838,-0.5826,-0.5823,-0.582,-0.5817,-0.5796,-0.5791,-0.5844,-0.5844,-0.5844,0,0,-0.6124,-0.6108,-0.6094,-0.6061,-0.6045,-0.6021,-0.6032,-0.6005,-0.5987,-0.5986,-0.5952,-0.5938,-0.5914,-0.5875,-0.5857,-0.5863,-0.5801,-0.5817,-0.5815,-0.5813,-0.5792,-0.5788,-0.5783,-0.5842,-0.5842,-0.5843,0,0,-0.6087,-0.6073,-0.6046,-0.6031,-0.6008,-0.5999,-0.5993,-0.597,-0.5962,-0.5927,-0.5927,-0.5904,-0.5859,-0.5842,-0.5828,-0.5786,-0.5786,-0.5778,-0.5761,-0.5741,-0.5736,-0.5733,-0.5719,-0.5714,-0.5774,-0.5774,-0.5774,0,-0.6073,-0.6038,-0.6031,-0.6005,-0.5991,-0.5991,-0.5963,-0.5948,-0.5918,-0.5908,-0.5915,-0.586,-0.5843,-0.5801,-0.5792,-0.5779,-0.5772,-0.5781,-0.5738,-0.5734,-0.573,-0.5717,-0.5712,-0.5773,-0.5774,-0.5774,-0.5774,0,-0.6021,-0.5997,-0.5977,-0.5951,-0.5934,-0.5907,-0.5896,-0.5879,-0.5877,-0.5867,-0.5832,-0.5812,-0.5784,-0.5773,-0.5769,-0.5732,-0.5736,-0.574,-0.5753,-0.5725,-0.5713,-0.5707,-0.5772,-0.5773,-0.5773,-0.5773,0,0,-0.5977,-0.5949,-0.5942,-0.5931,-0.5907,-0.5887,-0.586,-0.5834,-0.5821,-0.58,-0.5777,-0.574,-0.5745,-0.5729,-0.5723,-0.5705,-0.5675,-0.5711,-0.5711,-0.5707,-0.5634,-0.5632,-0.5626,-0.5675,-0.5674,-0.5673,-0.5636,0,-0.5939,-0.5893,-0.5887,-0.5847,-0.5824,-0.5825,-0.5801,-0.5784,-0.5774,-0.5753,-0.5741,-0.5716,-0.5723,-0.5714,-0.5696,-0.5683,-0.5661,-0.5685,-0.5654,-0.5653,-0.5661,-0.5619,-0.5616,-0.5583,-0.5631,-0.5631,-0.563,0,-0.5888,-0.5869,-0.5826,-0.5807,-0.5798,-0.5777,-0.5754,-0.5733,-0.5713,-0.5708,-0.569,-0.5687,-0.5659,-0.5672,-0.5634,-0.5651,-0.5637,-0.5629,-0.5627,-0.5625,-0.564,-0.5617,-0.5571,-0.5567,-0.5622,-0.5623,-0.5623,0,-0.5862,-0.5825,-0.5795,-0.5785,-0.5761,-0.5747,-0.5736,-0.5718,-0.5703,-0.5682,-0.5673,-0.5648,-0.5635,-0.5615,-0.5605,-0.5616,-0.5568,-0.558,-0.5562,-0.5563,-0.5552,-0.5553,-0.5506,-0.5542,-0.5542,-0.5542,-0.5542,0,-0.5821,-0.5795,-0.5784,-0.5766,-0.5737,-0.573,-0.5701,-0.5691,-0.5674,-0.5654,-0.5651,-0.5632,-0.562,-0.5598,-0.559,-0.556,-0.5553,-0.5548,-0.5546,-0.5549,-0.5549,-0.554,-0.5543,-0.5541,-0.5541,-0.5542,-0.5542,0,-0.5787,-0.5778,-0.5746,-0.5727,-0.5722,-0.5702,-0.5685,-0.5667,-0.5658,-0.5632,-0.5625,-0.561,-0.5585,-0.5574,-0.5541,-0.5536,-0.5502,-0.5502,-0.551,-0.551,-0.5493,-0.5495,-0.5438,-0.5431,-0.5472,-0.5471,-0.5471,0,-0.5762,-0.5743,-0.5723,-0.571,-0.5699,-0.5677,-0.5663,-0.5656,-0.5641,-0.5618,-0.5602,-0.5578,-0.5558,-0.5517,-0.5503,-0.5479,-0.5478,-0.546,-0.5474,-0.5478,-0.5479,-0.5481,-0.548,-0.5457,-0.5457,-0.5457,-0.5456,0,-0.5719,-0.5716,-0.5697,-0.5676,-0.566,-0.5642,-0.5625,-0.5614,-0.5604,-0.5587,-0.5563,-0.5547,-0.5516,-0.5492,-0.5467,-0.5455,-0.5454,-0.5452,-0.5447,-0.545,-0.5456,-0.5454,-0.5504,-0.5453,-0.5454,-0.5454,-0.5454,-0.5454,-0.569,-0.5674,-0.5657,-0.5636,-0.5623,-0.5607,-0.559,-0.558,-0.556,-0.5535,-0.5531,-0.5505,-0.5486,-0.5454,-0.5441,-0.542,-0.5424,-0.5416,-0.5414,-0.5413,-0.5412,-0.5459,-0.5415,-0.5415,-0.5415,-0.5415,-0.5415,0,-0.5648,-0.5638,-0.5619,-0.5596,-0.5579,-0.5582,-0.5563,-0.5549,-0.5527,-0.551,-0.5491,-0.5463,-0.544,-0.5424,-0.54,-0.5387,-0.5386,-0.5381,-0.5382,-0.538,-0.5409,-0.5417,-0.5382,-0.5382,-0.5382,-0.5382,-0.5382,-0.5382,-0.5625,-0.5598,-0.5593,-0.5559,-0.5549,-0.5525,-0.5514,-0.55,-0.5487,-0.5456,-0.5438,-0.5428,-0.5412,-0.5388,-0.5366,-0.5362,-0.5354,-0.5349,-0.5345,-0.5374,-0.5377,-0.538,-0.5388,-0.5347,-0.5347,-0.5317,-0.5317,-0.5317]},{"header":{"parameterUnit":"m.s-1","parameterCategory":1,"la1":30.2991,"la2":30.254,"lo1":-89.0895,"lo2":-89.0444,"dy":0.0017,"dx":0.0017,"nx":28,"ny":28,"refTime":"2023-07-19T09:00:00:Z","depth":0,"parameterNumber":3,"parameterNumberName":"V-component_of_WINDS"},"data":[0,0,0,0,0,0,0,0,0,0,0,0,0,0,0,0,0,0,0,0,0,0,0,0,0,0,0,0,0,0,0,0,0,0,0,0,0,0,0,0,0,0,0,0,0,0,0,0,0,0,0,0,0,0,0,0,0,0,2.8266,2.8265,0,2.8184,2.8183,2.8182,2.8098,2.8096,2.8095,2.8094,2.801,2.8009,2.8008,0,0,0,0,0,0,0,0,0,0,0,0,0,2.8349,2.8347,2.8266,2.8265,2.8264,2.8184,2.8183,2.8182,2.8098,2.8096,2.8095,2.8094,2.801,2.8009,2.8007,0,0,0,0,0,0,0,0,0,0,0,0,0,2.8294,2.8347,2.8267,2.8213,2.8207,2.8184,2.8183,2.8181,2.8098,2.8096,2.8095,2.8093,2.8011,2.8009,2.8007,2.8031,0,0,2.8002,2.8001,0,0,0,0,0,0,0,0,2.8297,2.8291,2.8222,2.8216,2.821,2.8149,2.8181,2.8131,2.8099,2.814,2.8094,2.8092,2.8058,2.8052,2.804,2.8027,2.8023,2.8002,2.8001,2.8,2.7999,0,0,0,0,0,0,0,2.8301,2.8294,2.8234,2.8221,2.8214,2.8192,2.8182,2.8171,2.8109,2.8136,2.813,2.8121,2.8054,2.8042,2.8038,2.8022,2.8002,2.8,2.7999,2.7998,2.8017,2.8019,0,0,0,0,0,0,2.8313,2.8298,2.8236,2.8231,2.825,2.8192,2.8181,2.8171,2.8109,2.8098,2.8122,2.8117,2.8046,2.804,2.8034,2.8053,2.8,2.7998,2.7997,2.8016,2.8018,2.8019,0,0,0,0,0,0,2.8316,2.8309,2.824,2.8263,2.8252,2.8192,2.8181,2.817,2.8158,2.8099,2.8087,2.8122,2.8044,2.8037,2.8031,2.8049,2.7997,2.7996,2.8014,2.8016,2.8018,2.8094,0,0,0,0,0,0,2.8318,2.831,2.8319,2.8264,2.8251,2.8239,2.8182,2.8169,2.8155,2.8147,2.8095,2.8085,2.8042,2.8034,2.8029,2.8046,2.7994,2.8012,2.8015,2.8018,2.8089,2.8099,2.8106,0,0,0,0,0,2.8321,2.8345,2.832,2.8313,2.8262,2.824,2.8233,2.8184,2.8157,2.8164,2.8126,2.8086,2.8049,2.8034,2.8028,2.8044,2.801,2.8014,2.8018,2.8086,2.8097,2.8106,0,0,0,0,0,0,2.8405,2.8337,2.8309,2.8315,2.8284,2.8226,2.8234,2.8198,2.8174,2.8168,2.8108,2.8096,2.8096,2.807,2.8055,2.8061,2.8024,2.8026,2.8078,2.8088,2.8096,2.8101,2.7993,0,0,0,0,0,2.8424,2.8413,2.8354,2.8365,2.8351,2.8295,2.8284,2.8249,2.8214,2.82,2.8162,2.8129,2.8109,2.8097,2.8076,2.8086,2.8071,2.8094,2.8102,2.811,2.8111,2.8109,2.8117,2.8031,2.8031,2.8031,0,0,2.8464,2.8425,2.8422,2.8381,2.8352,2.834,2.8285,2.8276,2.8265,2.8199,2.8189,2.816,2.8119,2.812,2.8118,2.8098,2.8132,2.8114,2.812,2.8118,2.8114,2.8122,2.8129,2.8033,2.8033,2.8032,0,0,2.8528,2.85,2.8503,2.8475,2.8433,2.8395,2.8396,2.8343,2.832,2.831,2.8258,2.8245,2.8214,2.8185,2.8167,2.8217,2.8178,2.8212,2.8255,2.8254,2.826,2.8266,2.8279,2.8286,2.8215,2.8215,2.8215,0,2.8582,2.8562,2.851,2.8502,2.8484,2.8423,2.8424,2.84,2.8353,2.8341,2.8319,2.8274,2.8244,2.8234,2.8245,2.8234,2.8231,2.8216,2.8264,2.8269,2.8273,2.8285,2.8291,2.8219,2.8218,2.8218,2.8218,0,2.8629,2.8615,2.8624,2.8577,2.856,2.8558,2.8503,2.8492,2.8458,2.8422,2.841,2.837,2.8337,2.8333,2.8301,2.8318,2.8306,2.8275,2.8236,2.8286,2.8296,2.8301,2.8225,2.8223,2.8222,2.8221,0,0,2.8743,2.8666,2.867,2.8646,2.8593,2.8581,2.8575,2.8542,2.8531,2.8501,2.8491,2.8464,2.8434,2.8413,2.8376,2.8376,2.8412,2.8344,2.8342,2.8354,2.8423,2.8444,2.845,2.8387,2.8387,2.8388,2.8425,0,2.8795,2.8779,2.873,2.8728,2.8713,2.8653,2.8646,2.8612,2.8578,2.8559,2.8522,2.8501,2.8466,2.8452,2.8449,2.8408,2.8424,2.8405,2.8374,2.8373,2.8382,2.8456,2.8479,2.8516,2.8429,2.8429,2.843,0,2.8854,2.8825,2.8821,2.8764,2.8756,2.8751,2.8715,2.8699,2.8658,2.8633,2.8608,2.8566,2.8553,2.8518,2.8497,2.8485,2.847,2.8448,2.8448,2.844,2.8403,2.8447,2.8527,2.8531,2.8437,2.8436,2.8436,0,2.8932,2.8892,2.8883,2.8866,2.8801,2.8798,2.8771,2.8729,2.8711,2.8679,2.8666,2.8634,2.8616,2.8591,2.8541,2.8521,2.8523,2.8486,2.8499,2.8501,2.8501,2.8501,2.8575,2.8497,2.8497,2.8497,2.8497,0,2.8993,2.8992,2.8917,2.8911,2.8907,2.885,2.8847,2.8815,2.8777,2.8762,2.871,2.8697,2.8633,2.8612,2.8572,2.8558,2.8551,2.8529,2.8517,2.8531,2.8534,2.8518,2.8513,2.8498,2.8498,2.8498,2.8497,0,2.9078,2.9029,2.9014,2.8954,2.8939,2.8938,2.8885,2.8876,2.8838,2.882,2.8812,2.8753,2.8725,2.8673,2.8631,2.8604,2.8597,2.858,2.8611,2.8603,2.8618,2.8616,2.8682,2.8686,2.8609,2.861,2.8611,0,2.9119,2.9116,2.9054,2.9041,2.9015,2.8994,2.8975,2.8919,2.8901,2.8851,2.8848,2.8816,2.8786,2.8744,2.8696,2.8663,2.8642,2.8668,2.8637,2.8649,2.8638,2.8637,2.8635,2.8674,2.8675,2.8676,2.8677,0,2.9194,2.9169,2.9143,2.9109,2.9087,2.9057,2.9024,2.9016,2.8951,2.8933,2.8904,2.8881,2.8837,2.8804,2.8763,2.8733,2.8693,2.8687,2.8688,2.87,2.8716,2.8704,2.8626,2.8686,2.8685,2.8684,2.8684,2.8683,2.9255,2.9248,2.9203,2.9175,2.9144,2.9114,2.9101,2.9061,2.9036,2.8995,2.8963,2.8935,2.889,2.8831,2.8803,2.8779,2.876,2.8763,2.8762,2.8763,2.8766,2.8723,2.8772,2.8771,2.8771,2.8771,2.8771,0,2.9324,2.9291,2.9267,2.9221,2.9199,2.9164,2.9125,2.9108,2.9084,2.9046,2.9018,2.8982,2.8949,2.8898,2.8861,2.8851,2.8831,2.8842,2.8841,2.8834,2.8787,2.8788,2.8858,2.8858,2.8858,2.8858,2.8858,2.8858,2.9357,2.9342,2.9311,2.9279,2.9246,2.9218,2.9198,2.9169,2.9138,2.91,2.9072,2.9039,2.8995,2.8953,2.892,2.8906,2.8893,2.8909,2.8889,2.8846,2.8838,2.883,2.883,2.8908,2.8908,2.8937,2.8937,2.8937]}]]